Time,TemperatureF,DewpointF,PressureIn,WindDirection,WindDirectionDegrees,WindSpeedMPH,WindSpeedGustMPH,Humidity,HourlyPrecipIn,Conditions,Clouds,dailyrainin,SoftwareType,DateUTC
2013-03-16 00:01:00,27.2,23.0,29.62,West,262,0.0,0.0,84,0.00,,,0.00,Wunderground v.1.15,2013-03-16 04:01:00,
2013-03-16 00:04:00,27.3,23.1,29.61,WSW,248,0.0,0.0,84,0.00,,,0.00,Wunderground v.1.15,2013-03-16 04:04:00,
2013-03-16 00:09:00,27.5,23.3,29.62,SW,235,0.0,0.0,84,0.00,,,0.00,Wunderground v.1.15,2013-03-16 04:09:00,
2013-03-16 00:15:00,27.6,23.7,29.62,SW,233,0.0,1.0,85,0.00,,,0.00,Wunderground v.1.15,2013-03-16 04:15:00,
2013-03-16 00:20:00,27.8,23.9,29.61,West,259,0.0,0.0,85,0.00,,,0.00,Wunderground v.1.15,2013-03-16 04:20:00,
2013-03-16 00:22:00,27.9,24.0,29.61,SSW,203,0.0,0.0,85,0.00,,,0.00,Wunderground v.1.15,2013-03-16 04:22:00,
2013-03-16 00:28:00,28.0,24.1,29.61,SW,224,0.0,0.0,85,0.00,,,0.00,Wunderground v.1.15,2013-03-16 04:28:00,
2013-03-16 00:34:00,28.0,24.1,29.62,SW,224,0.0,0.0,85,0.00,,,0.00,Wunderground v.1.15,2013-03-16 04:34:00,
2013-03-16 00:40:00,27.9,24.0,29.62,SW,225,0.0,0.0,85,0.00,,,0.00,Wunderground v.1.15,2013-03-16 04:40:00,
2013-03-16 00:46:00,27.7,23.8,29.62,SW,225,0.0,0.0,85,0.00,,,0.00,Wunderground v.1.15,2013-03-16 04:46:00,
2013-03-16 00:52:00,27.5,23.6,29.62,SW,226,0.0,0.0,85,0.00,,,0.00,Wunderground v.1.15,2013-03-16 04:52:00,
2013-03-16 00:58:00,27.3,23.7,29.62,SW,232,0.0,0.0,86,0.00,,,0.00,Wunderground v.1.15,2013-03-16 04:58:00,
2013-03-16 01:04:00,27.0,23.4,29.62,SW,232,0.0,0.0,86,0.00,,,0.00,Wunderground v.1.15,2013-03-16 05:04:00,
2013-03-16 01:09:00,26.7,23.4,29.62,SW,232,0.0,0.0,87,0.00,,,0.00,Wunderground v.1.15,2013-03-16 05:09:00,
2013-03-16 01:14:00,26.4,23.1,29.63,SW,232,0.0,0.0,87,0.00,,,0.00,Wunderground v.1.15,2013-03-16 05:14:00,
2013-03-16 01:20:00,26.3,23.0,29.63,WSW,245,0.0,0.0,87,0.00,,,0.00,Wunderground v.1.15,2013-03-16 05:20:00,
2013-03-16 01:25:00,26.2,22.9,29.63,WSW,243,0.0,0.0,87,0.00,,,0.00,Wunderground v.1.15,2013-03-16 05:25:00,
2013-03-16 01:31:00,26.3,23.0,29.63,NNE,19,0.0,2.0,87,0.00,,,0.00,Wunderground v.1.15,2013-03-16 05:31:00,
2013-03-16 01:37:00,26.7,23.1,29.64,WNW,283,0.0,2.0,86,0.00,,,0.00,Wunderground v.1.15,2013-03-16 05:37:00,
2013-03-16 01:42:00,27.0,22.8,29.64,SE,144,1.0,3.0,84,0.00,,,0.00,Wunderground v.1.15,2013-03-16 05:42:00,
2013-03-16 01:48:00,27.4,22.6,29.64,West,276,1.0,3.0,82,0.00,,,0.00,Wunderground v.1.15,2013-03-16 05:48:00,
2013-03-16 01:53:00,27.5,22.1,29.64,NNE,18,1.0,1.0,80,0.00,,,0.00,Wunderground v.1.15,2013-03-16 05:53:00,
2013-03-16 01:58:00,27.6,21.9,29.65,NNW,335,1.0,3.0,79,0.00,,,0.00,Wunderground v.1.15,2013-03-16 05:58:00,
2013-03-16 02:04:00,27.5,21.5,29.65,NNW,330,1.0,1.0,78,0.00,,,0.00,Wunderground v.1.15,2013-03-16 06:04:00,
2013-03-16 02:09:00,27.5,20.9,29.65,ENE,69,1.0,2.0,76,0.00,,,0.00,Wunderground v.1.15,2013-03-16 06:09:00,
2013-03-16 02:15:00,27.6,19.8,29.65,NE,37,1.0,5.0,72,0.00,,,0.00,Wunderground v.1.15,2013-03-16 06:15:00,
2013-03-16 02:21:00,27.7,18.8,29.66,North,356,1.0,3.0,69,0.00,,,0.00,Wunderground v.1.15,2013-03-16 06:21:00,
2013-03-16 02:26:00,27.7,18.2,29.66,ESE,110,1.0,3.0,67,0.00,,,0.00,Wunderground v.1.15,2013-03-16 06:26:00,
2013-03-16 02:31:00,27.7,17.1,29.66,North,4,1.0,3.0,64,0.00,,,0.00,Wunderground v.1.15,2013-03-16 06:31:00,
2013-03-16 02:36:00,27.7,16.7,29.66,South,187,1.0,5.0,63,0.00,,,0.00,Wunderground v.1.15,2013-03-16 06:36:00,
2013-03-16 02:42:00,27.6,15.9,29.66,SW,233,2.0,3.0,61,0.00,,,0.00,Wunderground v.1.15,2013-03-16 06:42:00,
2013-03-16 02:47:00,27.7,15.6,29.67,NE,37,2.0,7.0,60,0.00,,,0.00,Wunderground v.1.15,2013-03-16 06:47:00,
2013-03-16 02:53:00,27.5,15.4,29.67,ESE,115,2.0,2.0,60,0.00,,,0.00,Wunderground v.1.15,2013-03-16 06:53:00,
2013-03-16 02:58:00,27.4,15.3,29.67,NE,45,1.0,2.0,60,0.00,,,0.00,Wunderground v.1.15,2013-03-16 06:58:00,
2013-03-16 03:04:00,27.3,15.2,29.67,ENE,67,1.0,4.0,60,0.00,,,0.00,Wunderground v.1.15,2013-03-16 07:04:00,
2013-03-16 03:10:00,27.2,14.8,29.67,WNW,282,2.0,2.0,59,0.00,,,0.00,Wunderground v.1.15,2013-03-16 07:10:00,
2013-03-16 03:16:00,27.2,14.8,29.67,WSW,246,2.0,2.0,59,0.00,,,0.00,Wunderground v.1.15,2013-03-16 07:16:00,
2013-03-16 03:23:00,27.1,15.0,29.67,NNE,24,1.0,6.0,60,0.00,,,0.00,Wunderground v.1.15,2013-03-16 07:23:00,
2013-03-16 03:29:00,26.9,14.9,29.67,NE,54,1.0,6.0,60,0.00,,,0.00,Wunderground v.1.15,2013-03-16 07:29:00,
2013-03-16 03:34:00,26.5,14.5,29.67,NE,53,0.0,1.0,60,0.00,,,0.00,Wunderground v.1.15,2013-03-16 07:34:00,
2013-03-16 03:39:00,26.4,14.8,29.68,SW,218,1.0,1.0,61,0.00,,,0.00,Wunderground v.1.15,2013-03-16 07:39:00,
2013-03-16 03:45:00,26.4,14.8,29.68,WSW,255,1.0,1.0,61,0.00,,,0.00,Wunderground v.1.15,2013-03-16 07:45:00,
2013-03-16 03:50:00,26.2,14.9,29.68,South,178,1.0,1.0,62,0.00,,,0.00,Wunderground v.1.15,2013-03-16 07:50:00,
2013-03-16 03:55:00,26.1,14.8,29.69,North,357,1.0,1.0,62,0.00,,,0.00,Wunderground v.1.15,2013-03-16 07:55:00,
2013-03-16 04:02:00,25.9,15.0,29.69,West,276,0.0,1.0,63,0.00,,,0.00,Wunderground v.1.15,2013-03-16 08:02:00,
2013-03-16 04:08:00,25.8,14.9,29.69,SW,235,1.0,3.0,63,0.00,,,0.00,Wunderground v.1.15,2013-03-16 08:08:00,
2013-03-16 04:13:00,25.7,14.8,29.70,WNW,295,1.0,3.0,63,0.00,,,0.00,Wunderground v.1.15,2013-03-16 08:13:00,
2013-03-16 04:18:00,25.6,15.1,29.70,NNW,333,1.0,5.0,64,0.00,,,0.00,Wunderground v.1.15,2013-03-16 08:18:00,
2013-03-16 04:23:00,25.5,15.0,29.70,NE,37,1.0,2.0,64,0.00,,,0.00,Wunderground v.1.15,2013-03-16 08:23:00,
2013-03-16 04:29:00,25.4,14.9,29.70,SSE,167,0.0,3.0,64,0.00,,,0.00,Wunderground v.1.15,2013-03-16 08:29:00,
2013-03-16 04:34:00,25.4,14.9,29.70,NE,53,1.0,2.0,64,0.00,,,0.00,Wunderground v.1.15,2013-03-16 08:34:00,
2013-03-16 04:41:00,25.4,14.9,29.70,WNW,295,1.0,3.0,64,0.00,,,0.00,Wunderground v.1.15,2013-03-16 08:41:00,
2013-03-16 04:48:00,25.2,15.1,29.71,SW,226,1.0,3.0,65,0.00,,,0.00,Wunderground v.1.15,2013-03-16 08:48:00,
2013-03-16 04:53:00,25.1,15.0,29.71,West,259,0.0,1.0,65,0.00,,,0.00,Wunderground v.1.15,2013-03-16 08:53:00,
2013-03-16 04:58:00,24.9,14.8,29.71,NE,41,0.0,1.0,65,0.00,,,0.00,Wunderground v.1.15,2013-03-16 08:58:00,
2013-03-16 05:03:00,24.7,14.9,29.72,West,269,0.0,0.0,66,0.00,,,0.00,Wunderground v.1.15,2013-03-16 09:03:00,
2013-03-16 05:09:00,24.5,14.8,29.72,West,272,0.0,0.0,66,0.00,,,0.00,Wunderground v.1.15,2013-03-16 09:09:00,
2013-03-16 05:15:00,24.2,14.8,29.72,West,262,0.0,0.0,67,0.00,,,0.00,Wunderground v.1.15,2013-03-16 09:15:00,
2013-03-16 05:20:00,24.0,15.0,29.73,WNW,288,0.0,0.0,68,0.00,,,0.00,Wunderground v.1.15,2013-03-16 09:20:00,
2013-03-16 05:25:00,23.7,15.0,29.73,WSW,242,0.0,0.0,69,0.00,,,0.00,Wunderground v.1.15,2013-03-16 09:25:00,
2013-03-16 05:31:00,23.6,14.9,29.73,WSW,253,0.0,2.0,69,0.00,,,0.00,Wunderground v.1.15,2013-03-16 09:31:00,
2013-03-16 05:37:00,23.4,15.1,29.73,SW,225,0.0,2.0,70,0.00,,,0.00,Wunderground v.1.15,2013-03-16 09:37:00,
2013-03-16 05:43:00,23.2,14.9,29.74,North,4,0.0,3.0,70,0.00,,,0.00,Wunderground v.1.15,2013-03-16 09:43:00,
2013-03-16 05:49:00,23.2,14.9,29.74,SW,222,0.0,3.0,70,0.00,,,0.00,Wunderground v.1.15,2013-03-16 09:49:00,
2013-03-16 05:54:00,23.2,14.9,29.74,North,351,0.0,3.0,70,0.00,,,0.00,Wunderground v.1.15,2013-03-16 09:54:00,
2013-03-16 06:00:00,23.3,14.6,29.74,WSW,242,0.0,0.0,69,0.00,,,0.00,Wunderground v.1.15,2013-03-16 10:00:00,
2013-03-16 06:05:00,23.3,14.6,29.74,WNW,283,0.0,1.0,69,0.00,,,0.00,Wunderground v.1.15,2013-03-16 10:05:00,
2013-03-16 06:11:00,23.4,14.7,29.75,SSW,211,0.0,0.0,69,0.00,,,0.00,Wunderground v.1.15,2013-03-16 10:11:00,
2013-03-16 06:16:00,23.6,14.2,29.75,NE,42,1.0,6.0,67,0.00,,,0.00,Wunderground v.1.15,2013-03-16 10:16:00,
2013-03-16 06:22:00,23.9,14.2,29.75,NNE,15,1.0,2.0,66,0.00,,,0.00,Wunderground v.1.15,2013-03-16 10:22:00,
2013-03-16 06:29:00,24.0,14.3,29.76,North,355,1.0,2.0,66,0.00,,,0.00,Wunderground v.1.15,2013-03-16 10:29:00,
2013-03-16 06:35:00,23.8,14.1,29.76,NW,319,0.0,1.0,66,0.00,,,0.00,Wunderground v.1.15,2013-03-16 10:35:00,
2013-03-16 06:40:00,23.6,14.2,29.76,North,6,0.0,1.0,67,0.00,,,0.00,Wunderground v.1.15,2013-03-16 10:40:00,
2013-03-16 06:46:00,23.5,14.1,29.77,NW,323,0.0,2.0,67,0.00,,,0.00,Wunderground v.1.15,2013-03-16 10:46:00,
2013-03-16 06:51:00,23.2,14.2,29.77,NNW,335,0.0,0.0,68,0.00,,,0.00,Wunderground v.1.15,2013-03-16 10:51:00,
2013-03-16 06:57:00,22.9,14.2,29.77,NW,304,0.0,0.0,69,0.00,,,0.00,Wunderground v.1.15,2013-03-16 10:57:00,
2013-03-16 07:02:00,22.6,14.0,29.78,NW,304,0.0,0.0,69,0.00,,,0.00,Wunderground v.1.15,2013-03-16 11:02:00,
2013-03-16 07:08:00,22.3,14.0,29.78,WNW,303,0.0,0.0,70,0.00,,,0.00,Wunderground v.1.15,2013-03-16 11:08:00,
2013-03-16 07:13:00,22.3,14.0,29.78,WSW,253,0.0,1.0,70,0.00,,,0.00,Wunderground v.1.15,2013-03-16 11:13:00,
2013-03-16 07:19:00,22.1,14.1,29.78,WSW,254,0.0,0.0,71,0.00,,,0.00,Wunderground v.1.15,2013-03-16 11:19:00,
2013-03-16 07:24:00,22.1,14.4,29.78,NE,43,0.0,0.0,72,0.00,,,0.00,Wunderground v.1.15,2013-03-16 11:24:00,
2013-03-16 07:30:00,22.7,14.4,29.78,West,281,0.0,1.0,70,0.00,,,0.00,Wunderground v.1.15,2013-03-16 11:30:00,
2013-03-16 07:36:00,23.4,14.7,29.78,NE,43,0.0,1.0,69,0.00,,,0.00,Wunderground v.1.15,2013-03-16 11:36:00,
2013-03-16 07:42:00,23.8,14.8,29.79,SW,236,0.0,0.0,68,0.00,,,0.00,Wunderground v.1.15,2013-03-16 11:42:00,
2013-03-16 07:48:00,24.2,14.5,29.79,NE,52,0.0,1.0,66,0.00,,,0.00,Wunderground v.1.15,2013-03-16 11:48:00,
2013-03-16 07:53:00,24.7,14.9,29.80,ENE,69,0.0,0.0,66,0.00,,,0.00,Wunderground v.1.15,2013-03-16 11:53:00,
2013-03-16 07:58:00,25.1,14.6,29.80,WSW,248,0.0,2.0,64,0.00,,,0.00,Wunderground v.1.15,2013-03-16 11:58:00,
2013-03-16 08:04:00,25.7,15.6,29.80,WSW,249,0.0,0.0,65,0.00,,,0.00,Wunderground v.1.15,2013-03-16 12:04:00,
2013-03-16 08:10:00,25.6,14.4,29.80,NE,37,1.0,6.0,62,0.00,,,0.00,Wunderground v.1.15,2013-03-16 12:10:00,
2013-03-16 08:15:00,25.6,14.4,29.80,NNE,29,2.0,6.0,62,0.00,,,0.00,Wunderground v.1.15,2013-03-16 12:15:00,
2013-03-16 08:20:00,25.9,14.7,29.80,NNE,23,2.0,2.0,62,0.00,,,0.00,Wunderground v.1.15,2013-03-16 12:20:00,
2013-03-16 08:25:00,25.9,14.3,29.80,North,352,3.0,4.0,61,0.00,,,0.00,Wunderground v.1.15,2013-03-16 12:25:00,
2013-03-16 08:31:00,26.1,14.1,29.80,NNE,25,4.0,6.0,60,0.00,,,0.00,Wunderground v.1.15,2013-03-16 12:31:00,
2013-03-16 08:36:00,26.3,13.9,29.80,NE,43,5.0,6.0,59,0.00,,,0.00,Wunderground v.1.15,2013-03-16 12:36:00,
2013-03-16 08:43:00,26.6,14.2,29.81,ENE,70,3.0,4.0,59,0.00,,,0.00,Wunderground v.1.15,2013-03-16 12:43:00,
2013-03-16 08:48:00,26.7,13.5,29.81,NE,35,3.0,4.0,57,0.00,,,0.00,Wunderground v.1.15,2013-03-16 12:48:00,
2013-03-16 08:54:00,26.7,13.1,29.80,ENE,61,3.0,4.0,56,0.00,,,0.00,Wunderground v.1.15,2013-03-16 12:54:00,
2013-03-16 08:59:00,26.8,12.8,29.80,North,354,3.0,5.0,55,0.00,,,0.00,Wunderground v.1.15,2013-03-16 12:59:00,
2013-03-16 09:05:00,27.0,13.0,29.80,ENE,57,3.0,4.0,55,0.00,,,0.00,Wunderground v.1.15,2013-03-16 13:05:00,
2013-03-16 09:10:00,27.6,13.1,29.80,ENE,63,3.0,4.0,54,0.00,,,0.00,Wunderground v.1.15,2013-03-16 13:10:00,
2013-03-16 09:16:00,27.9,13.0,29.80,North,9,3.0,5.0,53,0.00,,,0.00,Wunderground v.1.15,2013-03-16 13:16:00,
2013-03-16 09:23:00,27.8,12.9,29.80,NE,34,4.0,7.0,53,0.00,,,0.00,Wunderground v.1.15,2013-03-16 13:23:00,
2013-03-16 09:29:00,28.1,12.7,29.80,NE,44,3.0,8.0,52,0.00,,,0.00,Wunderground v.1.15,2013-03-16 13:29:00,
2013-03-16 09:34:00,28.6,12.7,29.80,NNE,27,3.0,6.0,51,0.00,,,0.00,Wunderground v.1.15,2013-03-16 13:34:00,
2013-03-16 09:39:00,28.9,13.0,29.81,NNE,23,2.0,3.0,51,0.00,,,0.00,Wunderground v.1.15,2013-03-16 13:39:00,
2013-03-16 09:45:00,28.7,12.4,29.81,NE,49,2.0,7.0,50,0.00,,,0.00,Wunderground v.1.15,2013-03-16 13:45:00,
2013-03-16 09:50:00,28.9,13.0,29.81,North,352,2.0,3.0,51,0.00,,,0.00,Wunderground v.1.15,2013-03-16 13:50:00,
2013-03-16 09:57:00,29.2,12.4,29.80,NE,34,3.0,5.0,49,0.00,,,0.00,Wunderground v.1.15,2013-03-16 13:57:00,
2013-03-16 10:03:00,29.3,12.0,29.80,NNE,20,3.0,3.0,48,0.00,,,0.00,Wunderground v.1.15,2013-03-16 14:03:00,
2013-03-16 10:09:00,29.8,12.9,29.80,NE,43,2.0,4.0,49,0.00,,,0.00,Wunderground v.1.15,2013-03-16 14:09:00,
2013-03-16 10:14:00,30.0,12.2,29.80,NNE,19,2.0,3.0,47,0.00,,,0.00,Wunderground v.1.15,2013-03-16 14:14:00,
2013-03-16 10:19:00,30.3,12.5,29.80,ENE,58,2.0,2.0,47,0.00,,,0.00,Wunderground v.1.15,2013-03-16 14:19:00,
2013-03-16 10:24:00,30.8,12.4,29.80,ENE,66,2.0,4.0,46,0.00,,,0.00,Wunderground v.1.15,2013-03-16 14:24:00,
2013-03-16 10:29:00,30.5,11.7,29.80,NE,44,2.0,5.0,45,0.00,,,0.00,Wunderground v.1.15,2013-03-16 14:29:00,
2013-03-16 10:34:00,30.6,12.7,29.80,NNE,16,3.0,5.0,47,0.00,,,0.00,Wunderground v.1.15,2013-03-16 14:34:00,
2013-03-16 10:40:00,30.6,12.2,29.80,NNE,23,2.0,2.0,46,0.00,,,0.00,Wunderground v.1.15,2013-03-16 14:40:00,
2013-03-16 10:45:00,30.8,12.4,29.79,ENE,65,2.0,2.0,46,0.00,,,0.00,Wunderground v.1.15,2013-03-16 14:45:00,
2013-03-16 10:50:00,31.1,12.2,29.79,NNE,15,2.0,2.0,45,0.00,,,0.00,Wunderground v.1.15,2013-03-16 14:50:00,
2013-03-16 10:55:00,31.3,12.9,29.79,SW,215,2.0,6.0,46,0.00,,,0.00,Wunderground v.1.15,2013-03-16 14:55:00,
2013-03-16 11:01:00,32.0,12.5,29.79,NE,34,2.0,4.0,44,0.00,,,0.00,Wunderground v.1.15,2013-03-16 15:01:00,
2013-03-16 11:06:00,32.3,12.3,29.79,ESE,112,2.0,4.0,43,0.00,,,0.00,Wunderground v.1.15,2013-03-16 15:06:00,
2013-03-16 11:12:00,32.0,12.0,29.79,WSW,248,2.0,2.0,43,0.00,,,0.00,Wunderground v.1.15,2013-03-16 15:12:00,
2013-03-16 11:18:00,31.4,11.5,29.79,WSW,245,1.0,2.0,43,0.00,,,0.00,Wunderground v.1.15,2013-03-16 15:18:00,
2013-03-16 11:23:00,31.6,11.6,29.79,WNW,283,1.0,2.0,43,0.00,,,0.00,Wunderground v.1.15,2013-03-16 15:23:00,
2013-03-16 11:29:00,32.1,11.6,29.79,ENE,61,1.0,2.0,42,0.00,,,0.00,Wunderground v.1.15,2013-03-16 15:29:00,
2013-03-16 11:34:00,31.8,11.3,29.79,West,259,3.0,10.0,42,0.00,,,0.00,Wunderground v.1.15,2013-03-16 15:34:00,
2013-03-16 11:40:00,31.9,11.9,29.79,WSW,252,3.0,5.0,43,0.00,,,0.00,Wunderground v.1.15,2013-03-16 15:40:00,
2013-03-16 11:46:00,32.3,11.7,29.79,West,267,2.0,5.0,42,0.00,,,0.00,Wunderground v.1.15,2013-03-16 15:46:00,
2013-03-16 11:51:00,32.7,12.1,29.79,SW,217,2.0,5.0,42,0.00,,,0.00,Wunderground v.1.15,2013-03-16 15:51:00,
2013-03-16 11:56:00,31.8,10.7,29.79,SW,218,3.0,5.0,41,0.00,,,0.00,Wunderground v.1.15,2013-03-16 15:56:00,
2013-03-16 12:03:00,32.4,11.8,29.78,SSW,212,3.0,7.0,42,0.00,,,0.00,Wunderground v.1.15,2013-03-16 16:03:00,
2013-03-16 12:08:00,32.9,13.3,29.79,South,191,3.0,7.0,44,0.00,,,0.00,Wunderground v.1.15,2013-03-16 16:08:00,
2013-03-16 12:13:00,32.8,12.7,29.79,NE,55,3.0,3.0,43,0.00,,,0.00,Wunderground v.1.15,2013-03-16 16:13:00,
2013-03-16 12:18:00,33.3,12.6,29.78,SSW,213,2.0,5.0,42,0.00,,,0.00,Wunderground v.1.15,2013-03-16 16:18:00,
2013-03-16 12:24:00,34.1,12.3,29.78,SSW,203,2.0,7.0,40,0.00,,,0.00,Wunderground v.1.15,2013-03-16 16:24:00,
2013-03-16 12:30:00,34.3,12.4,29.78,NW,326,3.0,4.0,40,0.00,,,0.00,Wunderground v.1.15,2013-03-16 16:30:00,
2013-03-16 12:35:00,35.0,13.1,29.78,SW,221,2.0,5.0,40,0.00,,,0.00,Wunderground v.1.15,2013-03-16 16:35:00,
2013-03-16 12:41:00,33.9,12.1,29.78,SW,219,2.0,4.0,40,0.00,,,0.00,Wunderground v.1.15,2013-03-16 16:41:00,
2013-03-16 12:47:00,33.9,11.5,29.78,SE,127,3.0,4.0,39,0.00,,,0.00,Wunderground v.1.15,2013-03-16 16:47:00,
2013-03-16 12:53:00,34.2,11.8,29.78,South,179,3.0,4.0,39,0.00,,,0.00,Wunderground v.1.15,2013-03-16 16:53:00,
2013-03-16 12:58:00,34.9,11.8,29.78,ENE,72,2.0,4.0,38,0.00,,,0.00,Wunderground v.1.15,2013-03-16 16:58:00,
2013-03-16 13:03:00,35.2,11.5,29.78,SW,235,2.0,6.0,37,0.00,,,0.00,Wunderground v.1.15,2013-03-16 17:03:00,
2013-03-16 13:08:00,34.4,12.0,29.78,WNW,292,3.0,7.0,39,0.00,,,0.00,Wunderground v.1.15,2013-03-16 17:08:00,
2013-03-16 13:13:00,34.5,11.5,29.78,ENE,78,3.0,4.0,38,0.00,,,0.00,Wunderground v.1.15,2013-03-16 17:13:00,
2013-03-16 13:19:00,34.6,11.6,29.77,WSW,242,2.0,4.0,38,0.00,,,0.00,Wunderground v.1.15,2013-03-16 17:19:00,
2013-03-16 13:24:00,34.7,11.6,29.77,WSW,253,3.0,9.0,38,0.00,,,0.00,Wunderground v.1.15,2013-03-16 17:24:00,
2013-03-16 13:30:00,35.2,12.7,29.77,WSW,242,4.0,4.0,39,0.00,,,0.00,Wunderground v.1.15,2013-03-16 17:30:00,
2013-03-16 13:35:00,35.6,10.6,29.77,SW,224,3.0,4.0,35,0.00,,,0.00,Wunderground v.1.15,2013-03-16 17:35:00,
2013-03-16 13:41:00,36.2,12.4,29.77,North,11,2.0,2.0,37,0.00,,,0.00,Wunderground v.1.15,2013-03-16 17:41:00,
2013-03-16 13:46:00,36.3,11.9,29.76,WSW,257,2.0,4.0,36,0.00,,,0.00,Wunderground v.1.15,2013-03-16 17:46:00,
2013-03-16 13:51:00,36.3,13.1,29.76,NW,309,2.0,2.0,38,0.00,,,0.00,Wunderground v.1.15,2013-03-16 17:51:00,
2013-03-16 13:58:00,35.6,11.2,29.76,SW,231,3.0,5.0,36,0.00,,,0.00,Wunderground v.1.15,2013-03-16 17:58:00,
2013-03-16 14:03:00,35.1,10.8,29.76,SW,226,3.0,3.0,36,0.00,,,0.00,Wunderground v.1.15,2013-03-16 18:03:00,
2013-03-16 14:09:00,35.0,10.7,29.76,SW,225,2.0,3.0,36,0.00,,,0.00,Wunderground v.1.15,2013-03-16 18:09:00,
2013-03-16 14:14:00,34.8,11.1,29.76,ENE,73,1.0,2.0,37,0.00,,,0.00,Wunderground v.1.15,2013-03-16 18:14:00,
2013-03-16 14:19:00,35.3,11.0,29.76,NE,34,1.0,1.0,36,0.00,,,0.00,Wunderground v.1.15,2013-03-16 18:19:00,
2013-03-16 14:25:00,35.4,11.7,29.75,WSW,239,2.0,3.0,37,0.00,,,0.00,Wunderground v.1.15,2013-03-16 18:25:00,
2013-03-16 14:30:00,35.7,11.9,29.75,East,92,2.0,2.0,37,0.00,,,0.00,Wunderground v.1.15,2013-03-16 18:30:00,
2013-03-16 14:36:00,35.8,11.4,29.75,SSE,149,2.0,3.0,36,0.00,,,0.00,Wunderground v.1.15,2013-03-16 18:36:00,
2013-03-16 14:41:00,36.1,12.3,29.76,SW,231,2.0,2.0,37,0.00,,,0.00,Wunderground v.1.15,2013-03-16 18:41:00,
2013-03-16 14:48:00,35.9,10.9,29.75,SSW,205,2.0,5.0,35,0.00,,,0.00,Wunderground v.1.15,2013-03-16 18:48:00,
2013-03-16 14:54:00,35.7,11.3,29.75,SSE,158,2.0,4.0,36,0.00,,,0.00,Wunderground v.1.15,2013-03-16 18:54:00,
2013-03-16 14:59:00,36.3,10.6,29.75,SSW,198,2.0,4.0,34,0.00,,,0.00,Wunderground v.1.15,2013-03-16 18:59:00,
2013-03-16 15:04:00,36.1,10.4,29.75,NNE,20,2.0,4.0,34,0.00,,,0.00,Wunderground v.1.15,2013-03-16 19:04:00,
2013-03-16 15:09:00,36.6,10.8,29.75,East,98,2.0,2.0,34,0.00,,,0.00,Wunderground v.1.15,2013-03-16 19:09:00,
2013-03-16 15:15:00,36.5,10.1,29.75,WSW,246,1.0,5.0,33,0.00,,,0.00,Wunderground v.1.15,2013-03-16 19:15:00,
2013-03-16 15:20:00,36.1,10.4,29.75,SSE,152,1.0,1.0,34,0.00,,,0.00,Wunderground v.1.15,2013-03-16 19:20:00,
2013-03-16 15:25:00,35.9,9.5,29.75,East,84,1.0,3.0,33,0.00,,,0.00,Wunderground v.1.15,2013-03-16 19:25:00,
2013-03-16 15:31:00,36.1,10.4,29.75,South,177,1.0,1.0,34,0.00,,,0.00,Wunderground v.1.15,2013-03-16 19:31:00,
2013-03-16 15:37:00,36.1,10.4,29.76,SSW,208,2.0,4.0,34,0.00,,,0.00,Wunderground v.1.15,2013-03-16 19:37:00,
2013-03-16 15:43:00,36.2,10.5,29.75,SW,226,2.0,4.0,34,0.00,,,0.00,Wunderground v.1.15,2013-03-16 19:43:00,
2013-03-16 15:49:00,35.4,9.8,29.76,NNE,24,2.0,7.0,34,0.00,,,0.00,Wunderground v.1.15,2013-03-16 19:49:00,
2013-03-16 15:54:00,35.1,10.8,29.76,South,170,2.0,3.0,36,0.00,,,0.00,Wunderground v.1.15,2013-03-16 19:54:00,
2013-03-16 15:59:00,34.8,9.9,29.76,SE,131,2.0,2.0,35,0.00,,,0.00,Wunderground v.1.15,2013-03-16 19:59:00,
2013-03-16 16:04:00,34.9,10.6,29.76,West,262,2.0,4.0,36,0.00,,,0.00,Wunderground v.1.15,2013-03-16 20:04:00,
2013-03-16 16:09:00,34.8,10.5,29.77,WSW,247,1.0,2.0,36,0.00,,,0.00,Wunderground v.1.15,2013-03-16 20:09:00,
2013-03-16 16:15:00,34.7,10.4,29.76,NE,36,1.0,2.0,36,0.00,,,0.00,Wunderground v.1.15,2013-03-16 20:15:00,
2013-03-16 16:20:00,34.6,11.6,29.76,ESE,122,1.0,1.0,38,0.00,,,0.00,Wunderground v.1.15,2013-03-16 20:20:00,
2013-03-16 16:25:00,34.7,11.0,29.76,WSW,238,1.0,3.0,37,0.00,,,0.00,Wunderground v.1.15,2013-03-16 20:25:00,
2013-03-16 16:31:00,34.5,10.9,29.76,ENE,66,1.0,2.0,37,0.00,,,0.00,Wunderground v.1.15,2013-03-16 20:31:00,
2013-03-16 16:36:00,34.3,10.7,29.76,NE,39,1.0,2.0,37,0.00,,,0.00,Wunderground v.1.15,2013-03-16 20:36:00,
2013-03-16 16:43:00,34.4,11.4,29.76,SSE,150,1.0,2.0,38,0.00,,,0.00,Wunderground v.1.15,2013-03-16 20:43:00,
2013-03-16 16:48:00,34.3,11.3,29.75,East,97,1.0,4.0,38,0.00,,,0.00,Wunderground v.1.15,2013-03-16 20:48:00,
2013-03-16 16:54:00,34.4,12.0,29.75,SSW,198,1.0,2.0,39,0.00,,,0.00,Wunderground v.1.15,2013-03-16 20:54:00,
2013-03-16 16:59:00,34.3,11.3,29.75,North,352,2.0,3.0,38,0.00,,,0.00,Wunderground v.1.15,2013-03-16 20:59:00,
2013-03-16 17:04:00,34.1,11.1,29.75,NE,56,2.0,3.0,38,0.00,,,0.00,Wunderground v.1.15,2013-03-16 21:04:00,
2013-03-16 17:09:00,34.4,12.0,29.75,SE,143,1.0,1.0,39,0.00,,,0.00,Wunderground v.1.15,2013-03-16 21:09:00,
2013-03-16 17:14:00,35.0,11.9,29.75,ENE,61,1.0,2.0,38,0.00,,,0.00,Wunderground v.1.15,2013-03-16 21:14:00,
2013-03-16 17:20:00,34.8,11.7,29.75,SW,224,1.0,1.0,38,0.00,,,0.00,Wunderground v.1.15,2013-03-16 21:20:00,
2013-03-16 17:25:00,34.7,12.2,29.75,SSE,160,1.0,1.0,39,0.00,,,0.00,Wunderground v.1.15,2013-03-16 21:25:00,
2013-03-16 17:30:00,34.3,11.9,29.75,ENE,65,0.0,2.0,39,0.00,,,0.00,Wunderground v.1.15,2013-03-16 21:30:00,
2013-03-16 17:37:00,33.8,11.4,29.75,SSW,211,1.0,2.0,39,0.00,,,0.00,Wunderground v.1.15,2013-03-16 21:37:00,
2013-03-16 17:43:00,33.6,11.8,29.75,SSE,162,0.0,1.0,40,0.00,,,0.00,Wunderground v.1.15,2013-03-16 21:43:00,
2013-03-16 17:48:00,33.4,12.2,29.75,WSW,239,0.0,2.0,41,0.00,,,0.00,Wunderground v.1.15,2013-03-16 21:48:00,
2013-03-16 17:54:00,33.0,11.8,29.75,SSW,210,1.0,2.0,41,0.00,,,0.00,Wunderground v.1.15,2013-03-16 21:54:00,
2013-03-16 17:59:00,32.6,12.0,29.75,West,274,1.0,1.0,42,0.00,,,0.00,Wunderground v.1.15,2013-03-16 21:59:00,
2013-03-16 18:04:00,32.5,11.9,29.75,WSW,248,1.0,1.0,42,0.00,,,0.00,Wunderground v.1.15,2013-03-16 22:04:00,
2013-03-16 18:10:00,32.4,12.4,29.75,SW,217,0.0,1.0,43,0.00,,,0.00,Wunderground v.1.15,2013-03-16 22:10:00,
2013-03-16 18:15:00,32.4,12.4,29.76,SW,224,1.0,2.0,43,0.00,,,0.00,Wunderground v.1.15,2013-03-16 22:15:00,
2013-03-16 18:20:00,32.3,12.3,29.76,SSE,160,1.0,1.0,43,0.00,,,0.00,Wunderground v.1.15,2013-03-16 22:20:00,
2013-03-16 18:26:00,32.1,12.6,29.76,SSW,207,1.0,3.0,44,0.00,,,0.00,Wunderground v.1.15,2013-03-16 22:26:00,
2013-03-16 18:31:00,31.8,12.3,29.76,WSW,239,0.0,1.0,44,0.00,,,0.00,Wunderground v.1.15,2013-03-16 22:31:00,
2013-03-16 18:36:00,31.6,12.7,29.76,NNW,346,0.0,1.0,45,0.00,,,0.00,Wunderground v.1.15,2013-03-16 22:36:00,
2013-03-16 18:42:00,31.2,12.3,29.76,NE,39,0.0,1.0,45,0.00,,,0.00,Wunderground v.1.15,2013-03-16 22:42:00,
2013-03-16 18:48:00,30.9,12.5,29.77,NE,40,0.0,1.0,46,0.00,,,0.00,Wunderground v.1.15,2013-03-16 22:48:00,
2013-03-16 18:53:00,30.6,11.7,29.77,NNE,28,0.0,1.0,45,0.00,,,0.00,Wunderground v.1.15,2013-03-16 22:53:00,
2013-03-16 18:58:00,30.5,10.6,29.78,NW,309,1.0,3.0,43,0.00,,,0.00,Wunderground v.1.15,2013-03-16 22:58:00,
2013-03-16 19:03:00,30.4,10.5,29.78,NNE,13,1.0,1.0,43,0.00,,,0.00,Wunderground v.1.15,2013-03-16 23:03:00,
2013-03-16 19:09:00,30.3,10.4,29.78,NE,56,0.0,1.0,43,0.00,,,0.00,Wunderground v.1.15,2013-03-16 23:09:00,
2013-03-16 19:14:00,30.1,10.3,29.79,NE,37,0.0,2.0,43,0.00,,,0.00,Wunderground v.1.15,2013-03-16 23:14:00,
2013-03-16 19:19:00,29.9,10.6,29.79,NE,35,0.0,0.0,44,0.00,,,0.00,Wunderground v.1.15,2013-03-16 23:19:00,
2013-03-16 19:25:00,29.7,10.9,29.79,NE,41,1.0,2.0,45,0.00,,,0.00,Wunderground v.1.15,2013-03-16 23:25:00,
2013-03-16 19:31:00,29.6,10.3,29.80,North,4,2.0,4.0,44,0.00,,,0.00,Wunderground v.1.15,2013-03-16 23:31:00,
2013-03-16 19:36:00,29.6,9.8,29.80,NE,52,3.0,4.0,43,0.00,,,0.00,Wunderground v.1.15,2013-03-16 23:36:00,
2013-03-16 19:42:00,29.5,9.7,29.80,NNE,24,2.0,2.0,43,0.00,,,0.00,Wunderground v.1.15,2013-03-16 23:42:00,
2013-03-16 19:48:00,29.5,10.2,29.80,North,9,1.0,2.0,44,0.00,,,0.00,Wunderground v.1.15,2013-03-16 23:48:00,
2013-03-16 19:53:00,29.5,9.7,29.80,NNE,23,1.0,4.0,43,0.00,,,0.00,Wunderground v.1.15,2013-03-16 23:53:00,
2013-03-16 19:58:00,29.4,9.6,29.81,SW,226,2.0,4.0,43,0.00,,,0.00,Wunderground v.1.15,2013-03-16 23:58:00,
2013-03-16 20:03:00,29.4,10.1,29.80,NNE,17,2.0,2.0,44,0.00,,,0.00,Wunderground v.1.15,2013-03-17 00:03:00,
2013-03-16 20:08:00,29.4,9.6,29.81,NNE,22,2.0,6.0,43,0.00,,,0.00,Wunderground v.1.15,2013-03-17 00:08:00,
2013-03-16 20:14:00,29.3,9.5,29.81,North,353,2.0,3.0,43,0.00,,,0.00,Wunderground v.1.15,2013-03-17 00:14:00,
2013-03-16 20:19:00,29.3,9.5,29.81,NNE,17,2.0,6.0,43,0.00,,,0.00,Wunderground v.1.15,2013-03-17 00:19:00,
2013-03-16 20:24:00,29.2,9.4,29.81,WSW,246,1.0,6.0,43,0.00,,,0.00,Wunderground v.1.15,2013-03-17 00:24:00,
2013-03-16 20:29:00,29.2,9.4,29.82,NNE,25,2.0,2.0,43,0.00,,,0.00,Wunderground v.1.15,2013-03-17 00:29:00,
2013-03-16 20:35:00,29.1,9.4,29.82,ESE,111,2.0,4.0,43,0.00,,,0.00,Wunderground v.1.15,2013-03-17 00:35:00,
2013-03-16 20:41:00,29.1,9.4,29.82,NNE,24,2.0,3.0,43,0.00,,,0.00,Wunderground v.1.15,2013-03-17 00:41:00,
2013-03-16 20:46:00,29.0,9.3,29.82,ENE,63,2.0,3.0,43,0.00,,,0.00,Wunderground v.1.15,2013-03-17 00:46:00,
2013-03-16 20:53:00,28.9,9.2,29.82,NE,39,2.0,4.0,43,0.00,,,0.00,Wunderground v.1.15,2013-03-17 00:53:00,
2013-03-16 20:58:00,28.9,9.7,29.83,NNE,20,1.0,4.0,44,0.00,,,0.00,Wunderground v.1.15,2013-03-17 00:58:00,
2013-03-16 21:03:00,28.8,9.1,29.83,NE,54,0.0,2.0,43,0.00,,,0.00,Wunderground v.1.15,2013-03-17 01:03:00,
2013-03-16 21:09:00,28.7,9.5,29.83,NNW,345,1.0,1.0,44,0.00,,,0.00,Wunderground v.1.15,2013-03-17 01:09:00,
2013-03-16 21:15:00,28.7,9.5,29.83,NE,40,1.0,3.0,44,0.00,,,0.00,Wunderground v.1.15,2013-03-17 01:15:00,
2013-03-16 21:20:00,28.6,9.4,29.83,NE,36,2.0,6.0,44,0.00,,,0.00,Wunderground v.1.15,2013-03-17 01:20:00,
2013-03-16 21:26:00,28.6,9.4,29.83,NE,54,1.0,6.0,44,0.00,,,0.00,Wunderground v.1.15,2013-03-17 01:26:00,
2013-03-16 21:31:00,28.5,9.3,29.84,NNE,22,1.0,3.0,44,0.00,,,0.00,Wunderground v.1.15,2013-03-17 01:31:00,
2013-03-16 21:38:00,28.4,9.7,29.84,NE,43,1.0,3.0,45,0.00,,,0.00,Wunderground v.1.15,2013-03-17 01:38:00,
2013-03-16 21:43:00,28.4,9.2,29.84,NNE,13,0.0,3.0,44,0.00,,,0.00,Wunderground v.1.15,2013-03-17 01:43:00,
2013-03-16 21:48:00,28.3,9.6,29.84,NE,51,1.0,3.0,45,0.00,,,0.00,Wunderground v.1.15,2013-03-17 01:48:00,
2013-03-16 21:53:00,28.3,10.1,29.84,NE,48,1.0,1.0,46,0.00,,,0.00,Wunderground v.1.15,2013-03-17 01:53:00,
2013-03-16 21:58:00,28.2,10.0,29.84,NNE,24,0.0,1.0,46,0.00,,,0.00,Wunderground v.1.15,2013-03-17 01:58:00,
2013-03-16 22:03:00,28.2,10.0,29.85,NNE,32,0.0,1.0,46,0.00,,,0.00,Wunderground v.1.15,2013-03-17 02:03:00,
2013-03-16 22:08:00,28.2,10.0,29.85,WNW,297,0.0,1.0,46,0.00,,,0.00,Wunderground v.1.15,2013-03-17 02:08:00,
2013-03-16 22:14:00,28.1,9.9,29.85,NNE,32,0.0,1.0,46,0.00,,,0.00,Wunderground v.1.15,2013-03-17 02:14:00,
2013-03-16 22:19:00,28.1,9.9,29.85,NNE,12,1.0,1.0,46,0.00,,,0.00,Wunderground v.1.15,2013-03-17 02:19:00,
2013-03-16 22:25:00,28.1,9.9,29.85,NNE,17,1.0,2.0,46,0.00,,,0.00,Wunderground v.1.15,2013-03-17 02:25:00,
2013-03-16 22:30:00,28.0,10.3,29.85,NNW,346,1.0,1.0,47,0.00,,,0.00,Wunderground v.1.15,2013-03-17 02:30:00,
2013-03-16 22:35:00,27.9,10.2,29.86,NE,44,2.0,2.0,47,0.00,,,0.00,Wunderground v.1.15,2013-03-17 02:35:00,
2013-03-16 22:42:00,27.9,10.2,29.86,NNE,18,1.0,2.0,47,0.00,,,0.00,Wunderground v.1.15,2013-03-17 02:42:00,
2013-03-16 22:48:00,27.7,10.5,29.86,North,8,1.0,3.0,48,0.00,,,0.00,Wunderground v.1.15,2013-03-17 02:48:00,
2013-03-16 22:53:00,27.7,10.5,29.86,NNE,18,1.0,2.0,48,0.00,,,0.00,Wunderground v.1.15,2013-03-17 02:53:00,
2013-03-16 22:58:00,27.6,10.9,29.86,WNW,288,0.0,2.0,49,0.00,,,0.00,Wunderground v.1.15,2013-03-17 02:58:00,
2013-03-16 23:04:00,27.5,10.4,29.86,NNE,16,1.0,3.0,48,0.00,,,0.00,Wunderground v.1.15,2013-03-17 03:04:00,
2013-03-16 23:09:00,27.4,10.3,29.86,NE,37,1.0,1.0,48,0.00,,,0.00,Wunderground v.1.15,2013-03-17 03:09:00,
2013-03-16 23:14:00,27.3,10.6,29.86,NNE,29,1.0,2.0,49,0.00,,,0.00,Wunderground v.1.15,2013-03-17 03:14:00,
2013-03-16 23:20:00,27.0,10.4,29.87,NW,316,1.0,1.0,49,0.00,,,0.00,Wunderground v.1.15,2013-03-17 03:20:00,
2013-03-16 23:25:00,26.8,10.6,29.87,NNE,22,0.0,2.0,50,0.00,,,0.00,Wunderground v.1.15,2013-03-17 03:25:00,
2013-03-16 23:32:00,26.5,10.3,29.87,NE,35,1.0,4.0,50,0.00,,,0.00,Wunderground v.1.15,2013-03-17 03:32:00,
2013-03-16 23:38:00,26.3,10.6,29.88,NNE,13,1.0,4.0,51,0.00,,,0.00,Wunderground v.1.15,2013-03-17 03:38:00,
2013-03-16 23:43:00,26.1,10.4,29.88,NNE,32,0.0,1.0,51,0.00,,,0.00,Wunderground v.1.15,2013-03-17 03:43:00,
2013-03-16 23:48:00,25.9,10.2,29.88,NNE,22,0.0,1.0,51,0.00,,,0.00,Wunderground v.1.15,2013-03-17 03:48:00,
2013-03-16 23:54:00,25.8,10.1,29.88,NNE,19,0.0,1.0,51,0.00,,,0.00,Wunderground v.1.15,2013-03-17 03:54:00,